FENGYUN 1C DEB

Satellite information

Favourite Embed

Satellite Type and Status

DEBRISIN ORBIT

Key statistics

Satellite FENGYUN 1C DEB at a glance.

Uptime

9556

Days in orbit

Revolutions

≈ 14.1

Per day

Orbit

SSO

Sun Synchronous Orbit

Inclination

98.8

Latest

Satellite identification and parameters

Extended collection of information and parameters for FENGYUN 1C DEB.

Object identification

Identified? True

Debris? True

Object name: FENGYUN 1C DEB

International designator: 1999-025EGR

Object number (NORAD): 37423

Object ID (CCSDS): 37423

Country: PEOPLES REPUBLIC OF CHINA (PRC)

Current information (Y/N): Y

RCS size: SMALL

Orbital parameters

Period: 102.34 minutes

Inclination: 98.8005 deg

SMA: 7247.542 km

Apoapsis: 903.601 km

Periapsis: 835.212 km

RAAN: 240.9143 deg

Eccentricy: 0.0047181

Argument of periapsis: 249.7379 deg

Mean anomaly: 109.8714 deg

Mean motion: 14.07073119 rev/day

Mean motion (dot): 0.00001208 rev/day2

B* drag term: 0.0007409 1/REarth

Two-line elements (TLE)

Creation date: July 5, 2025, 5:45 p.m.

Reference frame: TEME

Reference center: EARTH

Epoch: July 5, 2025, 8:46 a.m. UTC

TLE line 0: 0 FENGYUN 1C DEB

TLE line 1: 1 37423U 99025EGR 25186.36541913 .00001208 00000-0 74090-3 0 9992

TLE line 2: 2 37423 98.8005 240.9143 0047181 249.7379 109.8714 14.07073119613548

Live tracking on map

Real-time ground track for satellite FENGYUN 1C DEB.

In-orbit conjunctions

A list of the most updated potential collisions computed for object FENGYUN 1C DEB.

Target Orbit TCA Probability of collision Miss distance Type
COSMOS 2237 LEO 2024-10-27 14:32:27 0.0001336642 686.0 (m) PAYLOAD
THORAD AGENA D DEB LEO 2024-05-28 02:09:30 0.0002041701 24.0 (m) DEBRIS

Associated space launch

Chinese polar orbiting meteorological satellite

FENGYUN 1C DEB was lifted into orbit during the mission ‘Long March 4B | Feng Yun 1C’, on board a Long March 4B space rocket.

The launch took place on May 10, 1999, 1:33 a.m. from Launch Complex 7.

For more information about the launch, click the button.

Launch to space Long March 4B | Feng Yun 1C
Long March 4B | Feng Yun 1C

Agency: N/A

Status: Launch Successful

Launch date: May 10, 1999, 1:33 a.m. UTC

Rocket: Long March 4B

Launch pad: Launch Complex 7

Location: Taiyuan Satellite Launch Center, People's Republic of China

...

Latest news about this satellite

There are no fresh news available about this satellite. Check back as we update our databases every day.


Newsletter sign-up

Weekly statistics, charts and insights to help you stay on top of the space industry.